Time,TemperatureF,DewpointF,PressureIn,WindDirection,WindDirectionDegrees,WindSpeedMPH,WindSpeedGustMPH,Humidity,HourlyPrecipIn,Conditions,Clouds,dailyrainin,SoftwareType,DateUTC
2013-05-15 00:02:00,67.3,59.9,30.16,ENE,71,0.0,2.0,77,0.00,,,0.00,meteohub,2013-05-15 04:02:00,
2013-05-15 00:07:00,66.9,59.5,30.16,ENE,71,0.0,2.0,77,0.00,,,0.00,meteohub,2013-05-15 04:07:00,
2013-05-15 00:12:00,66.9,59.5,30.16,ENE,71,0.0,2.0,77,0.00,,,0.00,meteohub,2013-05-15 04:12:00,
2013-05-15 00:17:00,66.9,59.5,30.16,ENE,71,1.0,2.0,77,0.00,,,0.00,meteohub,2013-05-15 04:17:00,
2013-05-15 00:22:00,66.9,59.5,30.16,ENE,71,0.0,3.0,77,0.00,,,0.00,meteohub,2013-05-15 04:22:00,
2013-05-15 00:27:00,66.7,59.4,30.16,ENE,71,1.0,3.0,77,0.00,,,0.00,meteohub,2013-05-15 04:27:00,
2013-05-15 00:32:00,66.7,59.4,30.16,ENE,71,2.0,3.0,77,0.00,,,0.00,meteohub,2013-05-15 04:32:00,
2013-05-15 00:37:00,66.7,59.0,30.16,ENE,71,1.0,3.0,76,0.00,,,0.00,meteohub,2013-05-15 04:37:00,
2013-05-15 00:42:00,66.9,59.2,30.16,ENE,71,1.0,3.0,76,0.00,,,0.00,meteohub,2013-05-15 04:42:00,
2013-05-15 00:47:00,66.9,59.2,30.16,ENE,71,0.0,3.0,76,0.00,,,0.00,meteohub,2013-05-15 04:47:00,
2013-05-15 00:52:00,66.9,59.2,30.16,ENE,73,0.0,3.0,76,0.00,,,0.00,meteohub,2013-05-15 04:52:00,
2013-05-15 00:57:00,66.9,59.2,30.16,ENE,73,1.0,4.0,76,0.00,,,0.00,meteohub,2013-05-15 04:57:00,
2013-05-15 01:02:00,66.9,59.2,30.16,ENE,67,0.0,4.0,76,0.00,,,0.00,meteohub,2013-05-15 05:02:00,
2013-05-15 01:07:00,66.7,59.0,30.16,ENE,67,1.0,4.0,76,0.00,,,0.00,meteohub,2013-05-15 05:07:00,
2013-05-15 01:12:00,66.7,59.0,30.16,ENE,67,2.0,4.0,76,0.00,,,0.00,meteohub,2013-05-15 05:12:00,
2013-05-15 01:17:00,66.7,58.6,30.16,ENE,67,2.0,4.0,75,0.00,,,0.00,meteohub,2013-05-15 05:17:00,
2013-05-15 01:22:00,66.9,58.8,30.16,ENE,67,0.0,4.0,75,0.00,,,0.00,meteohub,2013-05-15 05:22:00,
2013-05-15 01:27:00,66.9,58.8,30.16,ENE,68,2.0,4.0,75,0.00,,,0.00,meteohub,2013-05-15 05:27:00,
2013-05-15 01:32:00,66.9,58.8,30.16,ENE,69,2.0,4.0,75,0.00,,,0.00,meteohub,2013-05-15 05:32:00,
2013-05-15 01:37:00,66.9,58.8,30.16,ENE,70,2.0,4.0,75,0.00,,,0.00,meteohub,2013-05-15 05:37:00,
2013-05-15 01:42:00,66.9,58.8,30.16,ENE,70,1.0,4.0,75,0.00,,,0.00,meteohub,2013-05-15 05:42:00,
2013-05-15 01:47:00,66.9,58.3,30.16,ENE,71,2.0,4.0,74,0.00,,,0.00,meteohub,2013-05-15 05:47:00,
2013-05-15 01:52:00,67.1,58.5,30.16,ENE,73,0.0,4.0,74,0.00,,,0.00,meteohub,2013-05-15 05:52:00,
2013-05-15 01:57:00,66.9,58.8,30.16,ENE,76,2.0,4.0,75,0.00,,,0.00,meteohub,2013-05-15 05:57:00,
2013-05-15 02:02:00,66.9,58.8,30.15,ENE,77,3.0,4.0,75,0.00,,,0.00,meteohub,2013-05-15 06:02:00,
2013-05-15 02:07:00,66.9,58.8,30.15,ENE,78,3.0,4.0,75,0.00,,,0.00,meteohub,2013-05-15 06:07:00,
2013-05-15 02:12:00,66.9,58.8,30.15,ENE,78,3.0,4.0,75,0.00,,,0.00,meteohub,2013-05-15 06:12:00,
2013-05-15 02:17:00,66.9,59.2,30.15,ENE,78,0.0,4.0,76,0.00,,,0.00,meteohub,2013-05-15 06:17:00,
2013-05-15 02:22:00,67.1,59.4,30.15,ENE,78,0.0,4.0,76,0.00,,,0.00,meteohub,2013-05-15 06:22:00,
2013-05-15 02:27:00,67.1,59.4,30.14,ENE,78,0.0,4.0,76,0.00,,,0.00,meteohub,2013-05-15 06:27:00,
2013-05-15 02:32:00,67.1,59.4,30.14,ENE,78,0.0,4.0,76,0.00,,,0.00,meteohub,2013-05-15 06:32:00,
2013-05-15 02:37:00,66.9,59.5,30.14,ENE,78,1.0,3.0,77,0.00,,,0.00,meteohub,2013-05-15 06:37:00,
2013-05-15 02:42:00,67.1,59.4,30.15,ENE,78,1.0,4.0,76,0.00,,,0.00,meteohub,2013-05-15 06:42:00,
2013-05-15 02:47:00,67.1,59.4,30.14,East,94,1.0,4.0,76,0.00,,,0.00,meteohub,2013-05-15 06:47:00,
2013-05-15 02:52:00,67.1,59.4,30.14,East,95,3.0,5.0,76,0.00,,,0.00,meteohub,2013-05-15 06:52:00,
2013-05-15 02:57:00,66.9,59.2,30.14,East,98,2.0,5.0,76,0.00,,,0.00,meteohub,2013-05-15 06:57:00,
2013-05-15 03:02:00,66.9,59.2,30.14,East,97,0.0,5.0,76,0.00,,,0.00,meteohub,2013-05-15 07:02:00,
2013-05-15 03:07:00,66.7,59.0,30.14,East,96,0.0,5.0,76,0.00,,,0.00,meteohub,2013-05-15 07:07:00,
2013-05-15 03:12:00,66.6,58.8,30.14,East,96,1.0,5.0,76,0.00,,,0.00,meteohub,2013-05-15 07:12:00,
2013-05-15 03:17:00,66.2,58.5,30.14,East,96,1.0,5.0,76,0.00,,,0.00,meteohub,2013-05-15 07:17:00,
2013-05-15 03:22:00,66.0,58.3,30.14,East,96,0.0,5.0,76,0.00,,,0.00,meteohub,2013-05-15 07:22:00,
2013-05-15 03:27:00,65.8,58.5,30.14,East,96,1.0,5.0,77,0.00,,,0.00,meteohub,2013-05-15 07:27:00,
2013-05-15 03:32:00,65.7,58.6,30.14,East,96,0.0,3.0,78,0.00,,,0.00,meteohub,2013-05-15 07:32:00,
2013-05-15 03:37:00,65.5,58.5,30.14,East,96,0.0,3.0,78,0.00,,,0.00,meteohub,2013-05-15 07:37:00,
2013-05-15 03:42:00,65.3,58.6,30.13,East,96,1.0,3.0,79,0.00,,,0.00,meteohub,2013-05-15 07:42:00,
2013-05-15 03:47:00,65.1,58.5,30.13,East,96,1.0,2.0,79,0.00,,,0.00,meteohub,2013-05-15 07:47:00,
2013-05-15 03:52:00,65.1,58.5,30.13,East,96,0.0,2.0,79,0.00,,,0.00,meteohub,2013-05-15 07:52:00,
2013-05-15 03:57:00,64.9,58.6,30.13,East,96,0.0,2.0,80,0.00,,,0.00,meteohub,2013-05-15 07:57:00,
2013-05-15 04:02:00,64.8,58.5,30.13,East,96,1.0,2.0,80,0.00,,,0.00,meteohub,2013-05-15 08:02:00,
2013-05-15 04:07:00,64.8,58.8,30.13,East,96,1.0,2.0,81,0.00,,,0.00,meteohub,2013-05-15 08:07:00,
2013-05-15 04:12:00,64.8,58.8,30.13,East,96,0.0,3.0,81,0.00,,,0.00,meteohub,2013-05-15 08:12:00,
2013-05-15 04:22:00,64.6,58.6,30.13,East,96,1.0,3.0,81,0.00,,,0.00,meteohub,2013-05-15 08:22:00,
2013-05-15 04:27:00,64.6,59.0,30.13,East,96,0.0,3.0,82,0.00,,,0.00,meteohub,2013-05-15 08:27:00,
2013-05-15 04:32:00,64.4,58.8,30.13,East,96,0.0,3.0,82,0.00,,,0.00,meteohub,2013-05-15 08:32:00,
2013-05-15 04:37:00,64.4,58.8,30.13,East,96,0.0,3.0,82,0.00,,,0.00,meteohub,2013-05-15 08:37:00,
2013-05-15 04:42:00,64.2,58.6,30.13,East,96,0.0,2.0,82,0.00,,,0.00,meteohub,2013-05-15 08:42:00,
2013-05-15 04:47:00,64.4,58.8,30.13,East,96,1.0,2.0,82,0.00,,,0.00,meteohub,2013-05-15 08:47:00,
2013-05-15 04:52:00,64.4,59.2,30.13,East,96,2.0,2.0,83,0.00,,,0.00,meteohub,2013-05-15 08:52:00,
2013-05-15 04:57:00,64.6,59.0,30.13,East,96,2.0,5.0,82,0.00,,,0.00,meteohub,2013-05-15 08:57:00,
2013-05-15 05:02:00,64.6,59.0,30.13,East,96,2.0,5.0,82,0.00,,,0.00,meteohub,2013-05-15 09:02:00,
2013-05-15 05:07:00,64.6,59.0,30.13,East,96,2.0,5.0,82,0.00,,,0.00,meteohub,2013-05-15 09:07:00,
2013-05-15 05:12:00,64.6,59.4,30.13,East,96,1.0,3.0,83,0.00,,,0.00,meteohub,2013-05-15 09:12:00,
2013-05-15 05:17:00,64.6,59.4,30.13,East,96,1.0,3.0,83,0.00,,,0.00,meteohub,2013-05-15 09:17:00,
2013-05-15 05:22:00,64.8,59.5,30.13,East,96,2.0,2.0,83,0.00,,,0.00,meteohub,2013-05-15 09:22:00,
2013-05-15 05:27:00,64.8,59.5,30.13,East,96,3.0,3.0,83,0.00,,,0.00,meteohub,2013-05-15 09:27:00,
2013-05-15 05:32:00,64.6,59.4,30.13,East,96,2.0,5.0,83,0.00,,,0.00,meteohub,2013-05-15 09:32:00,
2013-05-15 05:37:00,64.6,59.4,30.14,East,96,1.0,5.0,83,0.00,,,0.00,meteohub,2013-05-15 09:37:00,
2013-05-15 05:42:00,64.4,59.5,30.14,East,96,0.0,5.0,84,0.00,,,0.00,meteohub,2013-05-15 09:42:00,
2013-05-15 05:47:00,64.2,59.4,30.14,East,96,0.0,2.0,84,0.00,,,0.00,meteohub,2013-05-15 09:47:00,
2013-05-15 05:57:00,64.0,59.2,30.14,East,96,1.0,5.0,84,0.00,,,0.00,meteohub,2013-05-15 09:57:00,
2013-05-15 06:02:00,64.0,59.2,30.14,East,96,1.0,5.0,84,0.00,,,0.00,meteohub,2013-05-15 10:02:00,
2013-05-15 06:07:00,64.0,59.2,30.14,East,96,1.0,5.0,84,0.00,,,0.00,meteohub,2013-05-15 10:07:00,
2013-05-15 06:12:00,64.0,59.2,30.14,East,96,1.0,3.0,84,0.00,,,0.00,meteohub,2013-05-15 10:12:00,
2013-05-15 06:17:00,64.0,59.2,30.14,East,96,1.0,3.0,84,0.00,,,0.00,meteohub,2013-05-15 10:17:00,
2013-05-15 06:22:00,64.0,58.8,30.14,East,96,2.0,3.0,83,0.00,,,0.00,meteohub,2013-05-15 10:22:00,
2013-05-15 06:27:00,64.0,59.2,30.14,East,96,2.0,3.0,84,0.00,,,0.00,meteohub,2013-05-15 10:27:00,
2013-05-15 06:32:00,64.0,59.2,30.14,East,96,1.0,3.0,84,0.00,,,0.00,meteohub,2013-05-15 10:32:00,
2013-05-15 06:37:00,64.0,59.2,30.15,East,96,1.0,3.0,84,0.00,,,0.00,meteohub,2013-05-15 10:37:00,
2013-05-15 06:42:00,64.2,59.4,30.15,East,96,0.0,3.0,84,0.00,,,0.00,meteohub,2013-05-15 10:42:00,
2013-05-15 06:47:00,64.2,59.4,30.15,East,96,0.0,3.0,84,0.00,,,0.00,meteohub,2013-05-15 10:47:00,
2013-05-15 06:52:00,64.0,59.2,30.15,East,96,0.0,2.0,84,0.00,,,0.00,meteohub,2013-05-15 10:52:00,
2013-05-15 06:57:00,64.0,59.2,30.15,East,96,0.0,1.0,84,0.00,,,0.00,meteohub,2013-05-15 10:57:00,
2013-05-15 07:02:00,64.0,59.2,30.15,East,96,0.0,1.0,84,0.00,,,0.00,meteohub,2013-05-15 11:02:00,
2013-05-15 07:07:00,64.2,59.5,30.15,East,96,0.0,0.0,85,0.00,,,0.00,meteohub,2013-05-15 11:07:00,
2013-05-15 07:12:00,64.4,59.7,30.15,East,96,0.0,0.0,85,0.00,,,0.00,meteohub,2013-05-15 11:12:00,
2013-05-15 07:17:00,64.8,60.1,30.15,East,96,0.0,1.0,85,0.00,,,0.00,meteohub,2013-05-15 11:17:00,
2013-05-15 07:27:00,65.1,60.1,30.15,East,96,0.0,1.0,84,0.00,,,0.00,meteohub,2013-05-15 11:27:00,
2013-05-15 07:32:00,65.3,60.3,30.15,East,96,1.0,1.0,84,0.00,,,0.00,meteohub,2013-05-15 11:32:00,
2013-05-15 07:42:00,65.7,60.6,30.15,East,96,0.0,2.0,84,0.00,,,0.00,meteohub,2013-05-15 11:42:00,
2013-05-15 07:47:00,66.0,61.0,30.15,East,96,1.0,2.0,84,0.00,,,0.00,meteohub,2013-05-15 11:47:00,
2013-05-15 07:57:00,66.6,61.2,30.16,East,96,0.0,3.0,83,0.00,,,0.00,meteohub,2013-05-15 11:57:00,
2013-05-15 08:02:00,66.9,61.5,30.16,East,96,0.0,3.0,83,0.00,,,0.00,meteohub,2013-05-15 12:02:00,
2013-05-15 08:07:00,67.5,61.7,30.16,East,96,1.0,3.0,82,0.00,,,0.00,meteohub,2013-05-15 12:07:00,
2013-05-15 08:12:00,67.6,61.5,30.16,East,96,0.0,3.0,81,0.00,,,0.00,meteohub,2013-05-15 12:12:00,
2013-05-15 08:17:00,68.0,61.9,30.16,East,96,1.0,3.0,81,0.00,,,0.00,meteohub,2013-05-15 12:17:00,
2013-05-15 08:22:00,68.4,61.5,30.17,East,96,0.0,3.0,79,0.00,,,0.00,meteohub,2013-05-15 12:22:00,
2013-05-15 08:27:00,68.7,61.5,30.17,East,96,0.0,3.0,78,0.00,,,0.00,meteohub,2013-05-15 12:27:00,
2013-05-15 08:32:00,69.1,61.9,30.17,East,96,2.0,3.0,78,0.00,,,0.00,meteohub,2013-05-15 12:32:00,
2013-05-15 08:42:00,70.2,61.9,30.17,East,96,0.0,5.0,75,0.00,,,0.00,meteohub,2013-05-15 12:42:00,
2013-05-15 08:52:00,70.9,61.3,30.17,East,96,1.0,3.0,72,0.00,,,0.00,meteohub,2013-05-15 12:52:00,
2013-05-15 08:57:00,71.4,61.9,30.18,East,96,1.0,3.0,72,0.00,,,0.00,meteohub,2013-05-15 12:57:00,
2013-05-15 09:02:00,71.8,61.5,30.18,ESE,105,0.0,3.0,70,0.00,,,0.00,meteohub,2013-05-15 13:02:00,
2013-05-15 09:07:00,71.8,61.5,30.18,ESE,108,3.0,4.0,70,0.00,,,0.00,meteohub,2013-05-15 13:07:00,
2013-05-15 09:12:00,71.8,61.0,30.18,East,90,5.0,6.0,69,0.00,,,0.00,meteohub,2013-05-15 13:12:00,
2013-05-15 09:17:00,72.0,61.7,30.18,East,97,3.0,6.0,70,0.00,,,0.00,meteohub,2013-05-15 13:17:00,
2013-05-15 09:22:00,72.3,61.5,30.18,East,92,6.0,6.0,69,0.00,,,0.00,meteohub,2013-05-15 13:22:00,
2013-05-15 09:27:00,72.9,61.3,30.18,ESE,102,1.0,6.0,67,0.00,,,0.00,meteohub,2013-05-15 13:27:00,
2013-05-15 09:32:00,73.4,61.3,30.18,ESE,109,3.0,6.0,66,0.00,,,0.00,meteohub,2013-05-15 13:32:00,
2013-05-15 09:37:00,73.8,60.8,30.18,ESE,103,5.0,7.0,64,0.00,,,0.00,meteohub,2013-05-15 13:37:00,
2013-05-15 09:42:00,73.9,61.3,30.18,East,95,1.0,7.0,65,0.00,,,0.00,meteohub,2013-05-15 13:42:00,
2013-05-15 09:52:00,74.7,60.3,30.18,ESE,104,2.0,7.0,61,0.00,,,0.00,meteohub,2013-05-15 13:52:00,
2013-05-15 09:57:00,74.7,60.3,30.18,SE,130,3.0,7.0,61,0.00,,,0.00,meteohub,2013-05-15 13:57:00,
2013-05-15 10:02:00,74.8,60.4,30.18,East,91,5.0,8.0,61,0.00,,,0.00,meteohub,2013-05-15 14:02:00,
2013-05-15 10:07:00,75.2,60.8,30.18,ENE,78,8.0,10.0,61,0.00,,,0.00,meteohub,2013-05-15 14:07:00,
2013-05-15 10:12:00,75.4,60.1,30.18,SSE,148,5.0,10.0,59,0.00,,,0.00,meteohub,2013-05-15 14:12:00,
2013-05-15 10:17:00,75.4,60.4,30.18,ESE,121,4.0,10.0,60,0.00,,,0.00,meteohub,2013-05-15 14:17:00,
2013-05-15 10:22:00,75.0,59.7,30.18,East,86,3.0,10.0,59,0.00,,,0.00,meteohub,2013-05-15 14:22:00,
2013-05-15 10:32:00,75.7,60.4,30.18,East,94,3.0,10.0,59,0.00,,,0.00,meteohub,2013-05-15 14:32:00,
2013-05-15 10:42:00,76.5,61.0,30.18,SE,128,5.0,10.0,59,0.00,,,0.00,meteohub,2013-05-15 14:42:00,
2013-05-15 10:52:00,76.3,59.4,30.18,SE,142,2.0,8.0,56,0.00,,,0.00,meteohub,2013-05-15 14:52:00,
2013-05-15 10:57:00,76.1,60.8,30.18,SSE,161,5.0,9.0,59,0.00,,,0.00,meteohub,2013-05-15 14:57:00,
2013-05-15 11:02:00,76.6,59.7,30.17,SSE,150,3.0,9.0,56,0.00,,,0.00,meteohub,2013-05-15 15:02:00,
2013-05-15 11:07:00,76.5,60.1,30.17,SSE,164,0.0,10.0,57,0.00,,,0.00,meteohub,2013-05-15 15:07:00,
2013-05-15 11:17:00,77.0,59.5,30.17,East,101,1.0,10.0,55,0.00,,,0.00,meteohub,2013-05-15 15:17:00,
2013-05-15 11:22:00,77.2,60.3,30.17,ENE,77,5.0,11.0,56,0.00,,,0.00,meteohub,2013-05-15 15:22:00,
2013-05-15 11:27:00,77.5,60.1,30.17,SSE,158,7.0,11.0,55,0.00,,,0.00,meteohub,2013-05-15 15:27:00,
2013-05-15 11:32:00,77.4,59.4,30.17,SSE,162,7.0,11.0,54,0.00,,,0.00,meteohub,2013-05-15 15:32:00,
2013-05-15 11:37:00,77.0,59.5,30.17,South,173,6.0,12.0,55,0.00,,,0.00,meteohub,2013-05-15 15:37:00,
2013-05-15 11:42:00,77.2,59.7,30.17,SSW,192,4.0,12.0,55,0.00,,,0.00,meteohub,2013-05-15 15:42:00,
2013-05-15 11:47:00,77.5,60.1,30.17,SE,142,3.0,12.0,55,0.00,,,0.00,meteohub,2013-05-15 15:47:00,
2013-05-15 11:52:00,77.5,59.0,30.17,SE,146,1.0,11.0,53,0.00,,,0.00,meteohub,2013-05-15 15:52:00,
2013-05-15 11:57:00,78.1,59.5,30.17,South,184,7.0,11.0,53,0.00,,,0.00,meteohub,2013-05-15 15:57:00,
2013-05-15 12:02:00,78.1,59.5,30.17,ESE,103,8.0,11.0,53,0.00,,,0.00,meteohub,2013-05-15 16:02:00,
2013-05-15 12:07:00,78.3,59.2,30.17,SE,142,5.0,9.0,52,0.00,,,0.00,meteohub,2013-05-15 16:07:00,
2013-05-15 12:12:00,78.8,59.2,30.17,ESE,111,4.0,9.0,51,0.00,,,0.00,meteohub,2013-05-15 16:12:00,
2013-05-15 12:17:00,79.3,57.9,30.17,ESE,119,0.0,8.0,48,0.00,,,0.00,meteohub,2013-05-15 16:17:00,
2013-05-15 12:27:00,79.5,59.2,30.16,ENE,78,2.0,9.0,50,0.00,,,0.00,meteohub,2013-05-15 16:27:00,
2013-05-15 12:32:00,79.9,59.0,30.16,SE,127,0.0,9.0,49,0.00,,,0.00,meteohub,2013-05-15 16:32:00,
2013-05-15 12:42:00,80.4,58.3,30.16,SSE,162,1.0,10.0,47,0.00,,,0.00,meteohub,2013-05-15 16:42:00,
2013-05-15 12:47:00,81.0,57.6,30.16,ESE,121,3.0,8.0,45,0.00,,,0.00,meteohub,2013-05-15 16:47:00,
2013-05-15 12:52:00,81.1,58.5,30.16,ESE,103,1.0,7.0,46,0.00,,,0.00,meteohub,2013-05-15 16:52:00,
2013-05-15 12:57:00,81.7,57.6,30.15,ESE,116,2.0,7.0,44,0.00,,,0.00,meteohub,2013-05-15 16:57:00,
2013-05-15 13:02:00,81.3,58.6,30.15,NNE,24,2.0,7.0,46,0.00,,,0.00,meteohub,2013-05-15 17:02:00,
2013-05-15 13:07:00,81.3,56.7,30.15,WNW,294,7.0,7.0,43,0.00,,,0.00,meteohub,2013-05-15 17:07:00,
2013-05-15 13:17:00,81.0,57.0,30.14,ENE,59,4.0,9.0,44,0.00,,,0.00,meteohub,2013-05-15 17:17:00,
2013-05-15 13:27:00,81.9,57.7,30.14,SE,127,3.0,8.0,44,0.00,,,0.00,meteohub,2013-05-15 17:27:00,
2013-05-15 13:32:00,82.2,57.6,30.14,ENE,78,7.0,8.0,43,0.00,,,0.00,meteohub,2013-05-15 17:32:00,
2013-05-15 13:37:00,82.2,56.8,30.14,ENE,71,4.0,8.0,42,0.00,,,0.00,meteohub,2013-05-15 17:37:00,
2013-05-15 13:42:00,82.9,57.6,30.13,ENE,69,2.0,9.0,42,0.00,,,0.00,meteohub,2013-05-15 17:42:00,
2013-05-15 13:47:00,83.1,56.3,30.13,West,277,1.0,9.0,40,0.00,,,0.00,meteohub,2013-05-15 17:47:00,
2013-05-15 13:52:00,83.8,57.0,30.13,NNW,329,0.0,7.0,40,0.00,,,0.00,meteohub,2013-05-15 17:52:00,
2013-05-15 13:57:00,84.6,56.8,30.13,South,180,6.0,6.0,39,0.00,,,0.00,meteohub,2013-05-15 17:57:00,
2013-05-15 14:02:00,82.9,55.4,30.13,South,179,2.0,10.0,39,0.00,,,0.00,meteohub,2013-05-15 18:02:00,
2013-05-15 14:07:00,82.8,55.2,30.12,South,175,2.0,10.0,39,0.00,,,0.00,meteohub,2013-05-15 18:07:00,
2013-05-15 14:17:00,84.0,55.8,30.12,ENE,61,3.0,9.0,38,0.00,,,0.00,meteohub,2013-05-15 18:17:00,
2013-05-15 14:22:00,83.8,57.0,30.12,ESE,111,3.0,8.0,40,0.00,,,0.00,meteohub,2013-05-15 18:22:00,
2013-05-15 14:27:00,83.5,55.9,30.12,SSE,165,2.0,8.0,39,0.00,,,0.00,meteohub,2013-05-15 18:27:00,
2013-05-15 14:32:00,83.7,56.1,30.12,SSW,210,0.0,9.0,39,0.00,,,0.00,meteohub,2013-05-15 18:32:00,
2013-05-15 14:37:00,84.4,55.9,30.11,SE,138,5.0,9.0,38,0.00,,,0.00,meteohub,2013-05-15 18:37:00,
2013-05-15 14:42:00,83.5,55.9,30.11,SW,232,3.0,7.0,39,0.00,,,0.00,meteohub,2013-05-15 18:42:00,
2013-05-15 14:47:00,83.5,56.7,30.11,SSE,157,1.0,7.0,40,0.00,,,0.00,meteohub,2013-05-15 18:47:00,
2013-05-15 14:57:00,83.1,60.8,30.11,WNW,292,6.0,9.0,47,0.00,,,0.00,meteohub,2013-05-15 18:57:00,
2013-05-15 15:02:00,81.7,61.2,30.11,WNW,286,5.0,11.0,50,0.00,,,0.00,meteohub,2013-05-15 19:02:00,
2013-05-15 15:12:00,81.3,62.1,30.10,WNW,289,7.0,11.0,52,0.00,,,0.00,meteohub,2013-05-15 19:12:00,
2013-05-15 15:22:00,81.0,61.2,30.10,NW,315,2.0,13.0,51,0.00,,,0.00,meteohub,2013-05-15 19:22:00,
2013-05-15 15:27:00,81.0,61.7,30.10,West,271,6.0,13.0,52,0.00,,,0.00,meteohub,2013-05-15 19:27:00,
2013-05-15 15:32:00,81.0,61.7,30.09,West,262,5.0,12.0,52,0.00,,,0.00,meteohub,2013-05-15 19:32:00,
2013-05-15 15:42:00,81.0,62.2,30.09,WSW,248,13.0,13.0,53,0.00,,,0.00,meteohub,2013-05-15 19:42:00,
2013-05-15 15:52:00,80.4,62.8,30.09,WSW,246,7.0,13.0,55,0.00,,,0.00,meteohub,2013-05-15 19:52:00,
2013-05-15 16:02:00,80.4,62.2,30.08,NNW,347,6.0,12.0,54,0.00,,,0.00,meteohub,2013-05-15 20:02:00,
2013-05-15 16:07:00,80.6,62.4,30.09,WNW,301,6.0,12.0,54,0.00,,,0.00,meteohub,2013-05-15 20:07:00,
2013-05-15 16:12:00,80.4,62.8,30.08,WSW,257,10.0,12.0,55,0.00,,,0.00,meteohub,2013-05-15 20:12:00,
2013-05-15 16:17:00,80.1,62.4,30.08,NNW,329,8.0,13.0,55,0.00,,,0.00,meteohub,2013-05-15 20:17:00,
2013-05-15 16:22:00,80.2,62.6,30.08,WSW,252,6.0,13.0,55,0.00,,,0.00,meteohub,2013-05-15 20:22:00,
2013-05-15 16:27:00,80.1,61.9,30.08,NW,311,5.0,13.0,54,0.00,,,0.00,meteohub,2013-05-15 20:27:00,
2013-05-15 16:37:00,79.7,62.1,30.07,WNW,288,6.0,13.0,55,0.00,,,0.00,meteohub,2013-05-15 20:37:00,
2013-05-15 16:42:00,79.7,63.1,30.07,WNW,291,11.0,13.0,57,0.00,,,0.00,meteohub,2013-05-15 20:42:00,
2013-05-15 16:47:00,79.7,61.5,30.07,WNW,302,6.0,13.0,54,0.00,,,0.00,meteohub,2013-05-15 20:47:00,
2013-05-15 16:52:00,79.5,61.3,30.07,WNW,303,8.0,13.0,54,0.00,,,0.00,meteohub,2013-05-15 20:52:00,
2013-05-15 16:57:00,79.5,61.9,30.07,NNW,332,10.0,14.0,55,0.00,,,0.00,meteohub,2013-05-15 20:57:00,
2013-05-15 17:07:00,79.5,60.8,30.06,NW,306,7.0,13.0,53,0.00,,,0.00,meteohub,2013-05-15 21:07:00,
2013-05-15 17:12:00,79.3,61.2,30.06,West,268,7.0,13.0,54,0.00,,,0.00,meteohub,2013-05-15 21:12:00,
2013-05-15 17:22:00,79.9,61.7,30.06,WNW,292,3.0,11.0,54,0.00,,,0.00,meteohub,2013-05-15 21:22:00,
2013-05-15 17:27:00,79.5,60.8,30.06,NW,317,3.0,15.0,53,0.00,,,0.00,meteohub,2013-05-15 21:27:00,
2013-05-15 17:32:00,79.0,60.4,30.06,WNW,284,6.0,15.0,53,0.00,,,0.00,meteohub,2013-05-15 21:32:00,
2013-05-15 17:37:00,78.6,60.6,30.06,NW,319,9.0,14.0,54,0.00,,,0.00,meteohub,2013-05-15 21:37:00,
2013-05-15 17:42:00,78.1,61.2,30.06,NNW,333,3.0,14.0,56,0.00,,,0.00,meteohub,2013-05-15 21:42:00,
2013-05-15 17:47:00,78.3,61.7,30.06,West,269,7.0,14.0,57,0.00,,,0.00,meteohub,2013-05-15 21:47:00,
2013-05-15 17:57:00,78.6,61.5,30.06,WNW,291,10.0,14.0,56,0.00,,,0.00,meteohub,2013-05-15 21:57:00,
2013-05-15 18:02:00,79.0,61.9,30.06,WNW,300,7.0,13.0,56,0.00,,,0.00,meteohub,2013-05-15 22:02:00,
2013-05-15 18:07:00,79.2,61.5,30.06,WNW,303,7.0,13.0,55,0.00,,,0.00,meteohub,2013-05-15 22:07:00,
2013-05-15 18:12:00,78.6,61.2,30.06,WNW,302,7.0,13.0,55,0.00,,,0.00,meteohub,2013-05-15 22:12:00,
2013-05-15 18:17:00,78.6,61.5,30.06,NNW,344,3.0,12.0,56,0.00,,,0.00,meteohub,2013-05-15 22:17:00,
2013-05-15 18:22:00,78.4,61.0,30.06,NW,313,7.0,11.0,55,0.00,,,0.00,meteohub,2013-05-15 22:22:00,
2013-05-15 18:32:00,78.3,61.3,30.05,NNW,338,1.0,12.0,56,0.00,,,0.00,meteohub,2013-05-15 22:32:00,
2013-05-15 18:37:00,78.4,61.0,30.05,WNW,303,9.0,12.0,55,0.00,,,0.00,meteohub,2013-05-15 22:37:00,
2013-05-15 18:42:00,78.1,61.2,30.05,NW,309,5.0,11.0,56,0.00,,,0.00,meteohub,2013-05-15 22:42:00,
2013-05-15 18:47:00,78.1,61.5,30.05,WNW,302,10.0,11.0,57,0.00,,,0.00,meteohub,2013-05-15 22:47:00,
2013-05-15 18:52:00,77.7,61.3,30.05,NW,325,4.0,11.0,57,0.00,,,0.00,meteohub,2013-05-15 22:52:00,
2013-05-15 18:57:00,78.1,61.2,30.05,NW,308,7.0,11.0,56,0.00,,,0.00,meteohub,2013-05-15 22:57:00,
2013-05-15 19:07:00,77.7,60.8,30.05,NNW,339,6.0,11.0,56,0.00,,,0.00,meteohub,2013-05-15 23:07:00,
2013-05-15 19:12:00,77.5,61.2,30.05,North,355,6.0,11.0,57,0.00,,,0.00,meteohub,2013-05-15 23:12:00,
2013-05-15 19:17:00,77.4,61.0,30.04,NNW,344,5.0,10.0,57,0.00,,,0.00,meteohub,2013-05-15 23:17:00,
2013-05-15 19:22:00,77.4,61.3,30.04,NW,309,7.0,10.0,58,0.00,,,0.00,meteohub,2013-05-15 23:22:00,
2013-05-15 19:27:00,77.2,61.7,30.04,NNE,13,5.0,9.0,59,0.00,,,0.00,meteohub,2013-05-15 23:27:00,
2013-05-15 19:37:00,76.8,61.3,30.04,North,0,8.0,8.0,59,0.00,,,0.00,meteohub,2013-05-15 23:37:00,
2013-05-15 19:42:00,76.5,61.0,30.04,North,10,2.0,9.0,59,0.00,,,0.00,meteohub,2013-05-15 23:42:00,
2013-05-15 19:47:00,76.3,61.0,30.04,NW,320,3.0,9.0,59,0.00,,,0.00,meteohub,2013-05-15 23:47:00,
2013-05-15 19:57:00,75.7,60.8,30.04,North,0,2.0,8.0,60,0.00,,,0.00,meteohub,2013-05-15 23:57:00,
2013-05-15 20:02:00,75.6,61.2,30.04,NNW,347,6.0,7.0,61,0.00,,,0.00,meteohub,2013-05-16 00:02:00,
2013-05-15 20:07:00,75.4,61.0,30.04,North,355,3.0,6.0,61,0.00,,,0.00,meteohub,2013-05-16 00:07:00,
2013-05-15 20:12:00,75.2,61.3,30.04,North,355,2.0,6.0,62,0.00,,,0.00,meteohub,2013-05-16 00:12:00,
2013-05-15 20:17:00,75.0,61.2,30.04,NNW,334,3.0,6.0,62,0.00,,,0.00,meteohub,2013-05-16 00:17:00,
2013-05-15 20:22:00,74.8,61.0,30.05,NW,316,1.0,6.0,62,0.00,,,0.00,meteohub,2013-05-16 00:22:00,
2013-05-15 20:27:00,74.7,60.8,30.05,NW,325,1.0,6.0,62,0.00,,,0.00,meteohub,2013-05-16 00:27:00,
2013-05-15 20:32:00,74.5,61.0,30.05,NW,322,3.0,6.0,63,0.00,,,0.00,meteohub,2013-05-16 00:32:00,
2013-05-15 20:42:00,74.1,61.2,30.05,NW,323,1.0,7.0,64,0.00,,,0.00,meteohub,2013-05-16 00:42:00,
2013-05-15 20:47:00,74.1,61.2,30.05,NNW,340,0.0,7.0,64,0.00,,,0.00,meteohub,2013-05-16 00:47:00,
2013-05-15 20:52:00,73.9,61.3,30.05,NW,323,4.0,7.0,65,0.00,,,0.00,meteohub,2013-05-16 00:52:00,
2013-05-15 20:57:00,73.9,61.3,30.06,NW,319,3.0,6.0,65,0.00,,,0.00,meteohub,2013-05-16 00:57:00,
2013-05-15 21:02:00,73.8,61.3,30.06,NNW,345,2.0,5.0,65,0.00,,,0.00,meteohub,2013-05-16 01:02:00,
2013-05-15 21:07:00,73.6,61.5,30.06,North,355,2.0,5.0,66,0.00,,,0.00,meteohub,2013-05-16 01:07:00,
2013-05-15 21:12:00,73.6,61.5,30.06,North,355,2.0,5.0,66,0.00,,,0.00,meteohub,2013-05-16 01:12:00,
2013-05-15 21:17:00,73.4,62.2,30.06,North,355,3.0,5.0,68,0.00,,,0.00,meteohub,2013-05-16 01:17:00,
2013-05-15 21:22:00,73.2,62.1,30.06,North,355,2.0,4.0,68,0.00,,,0.00,meteohub,2013-05-16 01:22:00,
2013-05-15 21:27:00,73.2,62.4,30.06,NNW,348,1.0,4.0,69,0.00,,,0.00,meteohub,2013-05-16 01:27:00,
2013-05-15 21:32:00,73.0,62.2,30.06,North,11,2.0,5.0,69,0.00,,,0.00,meteohub,2013-05-16 01:32:00,
2013-05-15 21:37:00,73.0,62.2,30.06,North,11,1.0,6.0,69,0.00,,,0.00,meteohub,2013-05-16 01:37:00,
2013-05-15 21:42:00,73.0,62.2,30.06,NNE,13,4.0,6.0,69,0.00,,,0.00,meteohub,2013-05-16 01:42:00,
2013-05-15 21:47:00,72.9,62.1,30.06,NNE,31,2.0,5.0,69,0.00,,,0.00,meteohub,2013-05-16 01:47:00,
2013-05-15 21:52:00,72.7,62.2,30.06,NNE,31,3.0,5.0,70,0.00,,,0.00,meteohub,2013-05-16 01:52:00,
2013-05-15 22:02:00,72.3,62.4,30.06,NNE,31,2.0,4.0,71,0.00,,,0.00,meteohub,2013-05-16 02:02:00,
2013-05-15 22:07:00,72.1,62.2,30.07,NNE,31,2.0,4.0,71,0.00,,,0.00,meteohub,2013-05-16 02:07:00,
2013-05-15 22:12:00,72.1,62.6,30.08,NNE,31,2.0,4.0,72,0.00,,,0.00,meteohub,2013-05-16 02:12:00,
2013-05-15 22:17:00,72.0,62.4,30.08,NNE,28,2.0,4.0,72,0.00,,,0.00,meteohub,2013-05-16 02:17:00,
2013-05-15 22:22:00,71.8,61.9,30.08,NNE,28,0.0,4.0,71,0.00,,,0.00,meteohub,2013-05-16 02:22:00,
2013-05-15 22:27:00,71.4,62.2,30.08,NNE,28,1.0,4.0,73,0.00,,,0.00,meteohub,2013-05-16 02:27:00,
2013-05-15 22:32:00,71.2,61.7,30.08,NNE,30,3.0,3.0,72,0.00,,,0.00,meteohub,2013-05-16 02:32:00,
2013-05-15 22:37:00,70.9,61.3,30.08,NE,45,2.0,4.0,72,0.00,,,0.00,meteohub,2013-05-16 02:37:00,
2013-05-15 22:42:00,71.2,62.1,30.08,NE,43,3.0,4.0,73,0.00,,,0.00,meteohub,2013-05-16 02:42:00,
2013-05-15 22:47:00,71.2,62.6,30.08,NNE,21,3.0,4.0,74,0.00,,,0.00,meteohub,2013-05-16 02:47:00,
2013-05-15 22:53:00,71.1,61.9,30.08,East,84,2.0,6.0,73,0.00,,,0.00,meteohub,2013-05-16 02:53:00,
2013-05-15 23:02:00,71.1,61.9,30.08,NE,42,6.0,7.0,73,0.00,,,0.00,meteohub,2013-05-16 03:02:00,
2013-05-15 23:07:00,71.2,61.7,30.08,NNE,22,1.0,8.0,72,0.00,,,0.00,meteohub,2013-05-16 03:07:00,
2013-05-15 23:12:00,71.1,61.9,30.08,ENE,70,0.0,8.0,73,0.00,,,0.00,meteohub,2013-05-16 03:12:00,
2013-05-15 23:17:00,70.9,61.9,30.08,ENE,70,1.0,8.0,73,0.00,,,0.00,meteohub,2013-05-16 03:17:00,
2013-05-15 23:22:00,71.1,62.4,30.08,ENE,61,3.0,5.0,74,0.00,,,0.00,meteohub,2013-05-16 03:22:00,
2013-05-15 23:27:00,70.9,62.2,30.08,SE,136,5.0,5.0,74,0.00,,,0.00,meteohub,2013-05-16 03:27:00,
2013-05-15 23:32:00,70.7,62.1,30.08,NE,52,4.0,5.0,74,0.00,,,0.00,meteohub,2013-05-16 03:32:00,
2013-05-15 23:42:00,71.2,62.1,30.07,NE,38,1.0,8.0,73,0.00,,,0.00,meteohub,2013-05-16 03:42:00,
2013-05-15 23:47:00,71.1,61.9,30.07,NE,40,0.0,8.0,73,0.00,,,0.00,meteohub,2013-05-16 03:47:00,
2013-05-15 23:57:00,70.7,62.1,30.07,NE,40,2.0,7.0,74,0.00,,,0.00,meteohub,2013-05-16 03:57:00,